Regional Weather Roundup
Issued by NWS Charleston, SC

Current Version | Previous Version | Graphics & Text | Print | Product List | Glossary On
Versions: 1 2 3 4 5 6 7 8 9 10 11 12 13 14 15 16 17 18 19 20 21 22 23 24 25 26 27 28 29 30 31 32 33 34 35 36 37 38 39 40 41 42 43 44 45 46 47 48 49 50
931
ASUS42 KCHS 270328
RWRCHS

REGIONAL WEATHER ROUNDUP
NATIONAL WEATHER SERVICE CHARLESTON SC
1100 PM EDT THU MAY 26 2016

NOTE: "FAIR" INDICATES FEW OR NO CLOUDS BELOW 12,000 FEET WITH NO
SIGNIFICANT WEATHER AND/OR OBSTRUCTIONS TO VISIBILITY.

NOT ALL STATIONS ARE QUALITY CONTROLLED. USE DATA WITH CAUTION...
ESPECIALLY DEWPOINT OBSERVATIONS.

SCZ027-030-031-034>040-042>050-270400-
...SOUTHEAST SOUTH CAROLINA...

CITY           SKY/WX    TMP DP  RH WIND       PRES   REMARKS
N CHARLESTON   CLEAR     72  63  73 S5        30.16R
WATERFRONT PRK   N/A     75  68  78 SE6       30.12S
MOUNT PLEASANT FAIR      66  64  94 CALM      30.16R
JOHNS ISLAND   FAIR      73  64  73 CALM      30.16R
PINOPOLIS        N/A     75  63  64 CALM      30.08R
MONCKS CORNER  FAIR      64  59  82 CALM      30.15F
SUMMERVILLE    FAIR      68  63  83 SE3       30.16S
BEAUFORT MCAS  CLEAR     74  66  76 CALM      30.15R
BEAUFORT ARPT  FAIR      72  63  73 SE3       30.15S
HILTON HEAD IS CLEAR     73  63  68 VRB5      30.16S
WALTERBORO     CLEAR     70  61  73 CALM      30.16S
ALLENDALE      FAIR      70  59  68 CALM      30.14S

...SOUTHERN MIDLANDS AND PEE DEE...

CITY           SKY/WX    TMP DP  RH WIND       PRES   REMARKS
GEORGETOWN     FAIR      64  63  94 CALM      30.17R
KINGSTREE      FAIR      68  57  68 SE5       30.16R
ORANGEBURG     CLEAR     71  57  61 CALM      30.15R
BARNWELL       FAIR      75  61  60 CALM      30.14F
AIKEN          FAIR      73  59  60 S8        30.16R
MANNING        FAIR      72  61  68 S5        30.15S
COLUMBIA       CLEAR     78  60  53 S13G21    30.11R
SUMTER         CLEAR     73  59  60 S8        30.12R
FLORENCE       CLEAR     72  59  63 S7        30.15R
MYRTLE BEACH   CLEAR     75  59  57 S7        30.19
N MYRTLE BEACH CLEAR     75  65  70 S8        30.16R

$$

GAZ063-065-086>088-099>101-113>116-118-119-134>141-150-270400-
...SOUTHEAST GEORGIA...

CITY           SKY/WX    TMP DP  RH WIND       PRES   REMARKS
SAVANNAH ARPT  CLEAR     73  62  68 SE5       30.15R
HUNTER AAF     CLEAR     72  64  78 E2        30.13R
FORT STEWART   CLEAR     67  61  79 CALM      30.13R
STATESBORO     CLEAR     72  63  72 SE5       30.14F
SYLVANIA       CLEAR     73  62  68 CALM      30.15F
CLAXTON        FAIR      66  60  79 CALM      30.15S

...CSRA...CENTRAL AND FAR SOUTHEAST GEORGIA...

CITY           SKY/WX    TMP DP  RH WIND       PRES   REMARKS
THOMSON        CLEAR     75  69  81 SE7       30.15F
AUGUSTA-BUSH   CLOUDY    76  60  57 SE9       30.11S
AUGUSTA-DANIEL MOCLDY    79  60  52 SE9       30.13R
SWAINSBORO     MOCLDY    75  55  50 S9        30.14S
VIDALIA        PTCLDY    72  57  60 SE7       30.14F
EASTMAN        FAIR      76  58  52 SE8       30.13F
HAZLEHURST     FAIR      74  54  48 CALM      30.12S
ALMA           CLEAR     72  59  63 SE6       30.14R
WAYCROSS       CLEAR     71  63  75 SE6       30.13F
JESUP          FAIR      64  59  82 CALM      30.15S
BAXLEY         FAIR      72  59  64 SE5       30.13F
BRUNSWICK      CLEAR     70  66  88 CALM      30.15S
SAINT SIMONS   CLEAR     75  60  59 E9        30.14R

$$

SCZ027-028-034-036>038-045-046-048>050-GAZ119-141-270400-
...LAKE AND SUPPLEMENTAL COASTAL OBSERVATIONS...

STATION/POSITION TIME  TEMP    WIND        PRES    WAVE   SWELL
                       AIR SEA DIR/SP/G            HT/PER HT/PER/DIR
                 (UTC) (F)     (DEG/KT/KT) (MB)    (FT/S) (FT/S/D)
WINYAH BAY       0245   75     160/  6     1020.0S
LAKE MURRAY      0200   80     170/ 10/ 12 1019.0R
ACE BASIN NERRS  0200   73     140/  2     1021.0R
FORT PULASKI     0200                      1020.8R
SAPELO ISLAND    0300   72     120/  3     1021.0R

$$

ANZ835-935-AMZ111-154-330-350-352-354-370-450-454-472-270400-
...C-MAN AND BUOY OBSERVATIONS...

STATION/POSITION TIME  TEMP    WIND        PRES    WAVE   SWELL
                       AIR SEA DIR/SP/G            HT/PER HT/PER/DIR
                 (UTC) (F)     (DEG/KT/KT) (MB)    (FT/S) (FT/S/D)
BUOY 41004       0250   78 77  120/ 12/ 14 1020.8R   2/ 9   2/ 9
BUOY 41008       0250   77 77  120/ 12/ 14 1020.6R   2/ 8   2/120/ 8
FOLLY BEACH CMAN 0300   77     150/ 11/ 12 1021.4R
CAPERS NEARSHORE 0308   77 77  170/ 10/ 12 1020.9R
FRIPP NEARSHORE  0308   77 77  150/ 12/ 14 1020.4R


STATION/POSITION TIME  TEMP    WIND        PRES    WAVE   SWELL
                       AIR SEA DIR/SP/G            HT/PER HT/PER/DIR
                 (UTC) (F)     (DEG/KT/KT) (MB)    (FT/S) (FT/S/D)
5E ST. MARYS GA  0301      78                N/A     3/ 4
FRYING PAN BUOY  0300   78 77  140/ 10/ 12 1021.4R
BUOY 41025       0250   76 71  180/ 10/ 14 1021.6R   2/10   2/110/10
CAPE LOOKOUT NC  0300   73     200/  6/  6 1021.6R
BUOY 41002       0250   76 78   80/ 14/ 16 1020.6F   3/ 5   2/ 80/ 8
BUOY 41010       0220   76 78   70/ 14/ 16 1018.6R
ST AUGUSTINE FL  0300   76 80  110/ 14/ 16 1020.6F


$$




USA.gov is the U.S. government's official web portal to all federal, state and local government web resources and services.